LEASLECO

Guest
Details From LEAS - Asturias
To LECO - A Coruna
Flight Number -
Tags decoded
Created
Modified
Stats Distance 103 nm / 191 km
Max Altitude 0 ft / 0 m
Waypoints 2
Social Downloads 0
Likes 0
Share VATSIM

Download

Looking for another format? Having issues loading an existing format? Contact us
Advertisement - Login to hide

Notes

Requested: LEAS LECO

Route

LEAS LECO

ID Type Via Altitude Latitude Longitude Leg Dist Tot Dist Heading (true) Name
O LEAS APT - 0 ft / 0 m 43.56350˚ -6.03467˚ - 0 nm - Asturias
O LECO APT - 0 ft / 0 m 43.30226˚ -8.37709˚ 103 nm 103 nm 262° / 260° A Coruna

Altitude Profile

Advertisement - Login to hide

LEAS

Details ICAO LEAS (OVD)
Name Asturias
Region Spain
Timezone Europe/Madrid (UTC+2.0)
Stats Elevation 416 ft / 127 m (AMSL)
Location 43.563496° -6.034670°
Runways 1
Magnetic Variation 1.571° W

METAR

LEAS 211730Z VRB04KT CAVOK 17/13 Q1012 NOSIG

Decode

TAF

TAF LEAS 211400Z 2115/2215 04009KT 8000 FEW010 TX20/2214Z TN13/2207Z PROB40 TEMPO 2115/2120 SCT030TCU TEMPO 2118/2209 3000 BR BKN010 PROB40 TEMPO 2200/2207 0800 BCFG BKN002

Decode

Departure Runways

ID Width Length Bearing (true) Bearing (mag) Surface Threshold Offset Overrun Length
11 148 ft / 45 m 7,216 ft / 2,200 m 108.09° 109.66° Asphalt 0 ft / 0 m 164 ft / 50 m
29 148 ft / 45 m 7,216 ft / 2,200 m 288.10° 289.67° Asphalt 0 ft / 0 m 164 ft / 50 m

LECO

Details ICAO LECO (LCG)
Name A Coruna
Region Spain
Timezone Europe/Madrid (UTC+2.0)
Stats Elevation 323 ft / 98 m (AMSL)
Location 43.302264° -8.377086°
Runways 1
Magnetic Variation 2.333° W

METAR

LECO 211730Z 33007KT 280V010 9999 OVC014 15/12 Q1012 NOSIG

Decode

TAF

TAF LECO 211400Z 2115/2215 33009KT CAVOK TX22/2214Z TN09/2207Z PROB30 TEMPO 2115/2120 SCT030TCU TEMPO 2120/2208 3000 BR BKN010 PROB40 TEMPO 2200/2208 0800 BCFG BKN002

Decode

Destination Runways

ID Width Length Bearing (true) Bearing (mag) Surface Threshold Offset Overrun Length
04 148 ft / 45 m 6,371 ft / 1,942 m 30.94° 33.27° Asphalt 0 ft / 0 m 194 ft / 59 m
22 148 ft / 45 m 6,371 ft / 1,942 m 210.94° 213.27° Asphalt 0 ft / 0 m 203 ft / 62 m

Approach Navaids

Runway Type Ident Frequency Range Bearing (true) Bearing (mag) Slope Elevation
22 Localiser LCO 109.90 MHz 18 nm / 33 km 210.89° 213.23° - 329 ft / 100 m (AMSL)
22 Glidescope LCO 109.90 MHz 10 nm / 19 km 210.94° 213.27° 3.00° 323 ft / 98 m (AMSL)
22 DME LCO 109.90 MHz 18 nm / 33 km - - - 293 ft / 89 m (AMSL)

Popular Alternatives